STARLINK-33914, 63774

Orbit data source: Space-Track

STARLINK-33914, 63774 is a payload satellite owned by SpaceX/Seattle (US) in LEO that was launched on Tue, 29 Apr 2025 UTC via an FALCON 9 launch vehicle from the Air Force Eastern Test Range (AFETR). Payload-class satellites include a variety of spacecraft equipped with specific instruments for various scientific and technological missions. These include communications satellites like Starlink; space stations such as the ISS; scientific satellites like the Hubble; Earth observation satellites from companies like Planet Labs, Umbra, and HawkEye 360; GPS; miniature CubeSats for education and research; and military/defense satellites.

Loading next visibility...
Identifier
63774, 2025-089Y
Orbit
LEO
Country
Flag of USUS
Related business
Manufacturer
SpaceX/Seattle
Mission
Operational Commercial Communications
Bus & Motor
STARLINK V2MO, Unknown motor
Mass
575 kg wet, ~530 kg dry
Launch date (UTC)
2025-04-29 (1 year ago)
Launch vehicle
FALCON 9
Launch site
Air Force Eastern Test Range (AFETR)
Object type
Payload
Rocket body
Debris
Shape & HBR
Box + 2 Pan, 17.7 m
Radar Cross Section
36.964 m², Large (>1 m²)

Expand to show TLE details & history
Last TLE update: 1 day ago

TLE from 1 day ago
0 STARLINK-33914
1 63774U 25089Y   26170.50334314  .00010501  00000-0  39045-3 0  9991
2 63774  43.0019 186.3149 0002066 280.3228  79.7391 15.27590093 64576
Epoch: 2026-06-19T12:04Z
TLE epoch observation values (Epoch: 2026-06-19T12:04:48.847Z)
Latitude
0.00001°
Longitude
97.38°
Altitude
482.542 km
Speed
7.626 km/s
True Right ascension
12h 25m 15s
True Declination
0° 00' 00"
Sunlit
Object was in daylight at epoch
Visualization orbit readout
Latitude
Unknown
Longitude
Unknown
Altitude
Unknown
Speed
Unknown
Apparent Right ascension
Unknown
Apparent Declination
Unknown
Sunlit
N/A
Visualization observer readout
Local Sidereal Time
08:33:41
Azimuth
Unknown
Elevation
Unknown
Doppler factor
Unknown
Orbital elements
Apogee altitude
486.382 km
Perigee altitude
483.546 km
Semi-major axis
6,863.101 km
Eccentricity
0.00021
Inclination
43.0019°
RAAN
186.3149°
Arg. of periapsis
280.3228°
True anomaly
79.7624°
Mean anomaly
79.7391°
Eccentric anomaly
79.75075°
Mean motion
3.81736 °/min
Orbital period
94.31 mins
BSTAR
0.00039045
Loading maneuver chart data...
Computing Atmospheric mass density...
Loading historical data...
Loading historical data...
Loading historical data...
Loading historical data...
Loading historical data...
Loading historical data...
Loading historical data...

Documentation

Showing up to 5 results
|